LOT6H LOWW-EPKK

Flight info

Callsign LOT6H
Flight time N/A
Altitude 29000
Route LEDVA DCT NETIR
Aircraft B738/M-SDE2E3FGHIRWXY/LB1

Departure

Time 2026-05-01 13:48
Airport Vienna International Airport (LOWW)

Arrival

Time N/A
Airport Kraków John Paul II International Airport (EPKK)
Time Latitude Longitude Altitude Speed Heading
2026-05-01 13:23 48.11905 16.55702 604 ft 0 kts 26°
2026-05-01 13:33 48.11903 16.55701 604 ft 1 kts 26°
2026-05-01 13:33 48.11871 16.55677 610 ft 2 kts 26°
2026-05-01 13:34 48.11843 16.55645 623 ft 3 kts 73°
2026-05-01 13:34 48.11850 16.55594 620 ft 2 kts 116°
2026-05-01 13:35 48.11853 16.55584 617 ft 1 kts 116°
2026-05-01 13:38 48.11832 16.55648 614 ft 6 kts 116°
2026-05-01 13:38 48.11810 16.55712 615 ft 8 kts 116°
2026-05-01 13:38 48.11788 16.55781 617 ft 7 kts 115°
2026-05-01 13:39 48.11755 16.55883 619 ft 15 kts 115°
2026-05-01 13:39 48.11704 16.56041 618 ft 17 kts 116°
2026-05-01 13:39 48.11656 16.56187 621 ft 16 kts 116°
2026-05-01 13:39 48.11609 16.56333 613 ft 16 kts 116°
2026-05-01 13:40 48.11554 16.56500 619 ft 19 kts 116°
2026-05-01 13:40 48.11498 16.56674 619 ft 18 kts 115°
2026-05-01 13:40 48.11442 16.56842 614 ft 18 kts 116°
2026-05-01 13:40 48.11389 16.57005 619 ft 17 kts 115°
2026-05-01 13:41 48.11338 16.57164 624 ft 16 kts 116°
2026-05-01 13:41 48.11289 16.57314 620 ft 16 kts 116°
2026-05-01 13:41 48.11238 16.57467 623 ft 18 kts 116°
2026-05-01 13:41 48.11182 16.57645 620 ft 20 kts 115°
2026-05-01 13:42 48.11084 16.57778 614 ft 20 kts 163°
2026-05-01 13:42 48.10956 16.57831 615 ft 19 kts 164°
2026-05-01 13:42 48.10823 16.57888 619 ft 20 kts 165°
2026-05-01 13:42 48.10675 16.57950 619 ft 25 kts 164°
2026-05-01 13:43 48.10495 16.58027 621 ft 28 kts 164°
2026-05-01 13:43 48.10314 16.58102 621 ft 26 kts 165°
2026-05-01 13:43 48.10144 16.58175 624 ft 25 kts 164°
2026-05-01 13:43 48.09965 16.58251 620 ft 27 kts 164°
2026-05-01 13:44 48.09789 16.58325 629 ft 27 kts 164°
2026-05-01 13:44 48.09595 16.58406 622 ft 31 kts 164°
2026-05-01 13:44 48.09388 16.58493 621 ft 30 kts 164°
2026-05-01 13:44 48.09194 16.58576 618 ft 28 kts 164°
2026-05-01 13:45 48.09012 16.58653 623 ft 27 kts 164°
2026-05-01 13:45 48.08844 16.58739 624 ft 25 kts 141°
2026-05-01 13:45 48.08797 16.58965 625 ft 23 kts 74°
2026-05-01 13:45 48.08914 16.59100 628 ft 22 kts
2026-05-01 13:46 48.08981 16.59084 630 ft 0 kts 344°
2026-05-01 13:48 48.08983 16.59083 635 ft 4 kts 344°
2026-05-01 13:48 48.09284 16.58956 627 ft 90 kts 344°
2026-05-01 13:48 48.10140 16.58591 663 ft 162 kts 343°
2026-05-01 13:48 48.11338 16.58126 1461 ft 182 kts 346°
2026-05-01 13:49 48.12501 16.57634 2976 ft 164 kts 343°
2026-05-01 13:49 48.13567 16.57107 4036 ft 167 kts 343°
2026-05-01 13:49 48.14794 16.56608 4399 ft 199 kts 353°
2026-05-01 13:49 48.16260 16.56962 3753 ft 236 kts 25°
2026-05-01 13:50 48.17636 16.58796 1735 ft 305 kts 60°
2026-05-01 13:50 48.18571 16.61243 2727 ft 251 kts 47°
2026-05-01 13:50 48.19952 16.62935 2533 ft 266 kts 28°
2026-05-01 13:50 48.21505 16.64297 2779 ft 245 kts 28°
2026-05-01 13:51 48.22862 16.65533 3306 ft 220 kts 29°
2026-05-01 13:51 48.24188 16.66735 3927 ft 228 kts 28°
2026-05-01 13:51 48.25646 16.67862 4526 ft 241 kts 25°
2026-05-01 13:51 48.27185 16.68995 5149 ft 253 kts 24°
2026-05-01 13:52 48.28774 16.70170 5738 ft 255 kts 25°
2026-05-01 13:52 48.30357 16.71352 6313 ft 254 kts 25°
2026-05-01 13:52 48.31946 16.72544 6903 ft 255 kts 26°
2026-05-01 13:52 48.32999 16.73334 7282 ft 255 kts 26°
2026-05-01 13:53 48.34604 16.74447 7846 ft 255 kts 18°
2026-05-01 13:53 48.37773 16.76527 9162 ft 255 kts 44°
2026-05-01 13:53 48.39449 16.79021 10298 ft 257 kts 44°
2026-05-01 13:54 48.40319 16.80316 10785 ft 262 kts 44°
2026-05-01 13:54 48.41647 16.82277 11037 ft 285 kts 44°
2026-05-01 13:54 48.43110 16.84420 11214 ft 308 kts 44°
2026-05-01 13:54 48.44662 16.86675 11397 ft 329 kts 44°
2026-05-01 13:55 48.46314 16.89062 11868 ft 338 kts 43°
2026-05-01 13:55 48.48034 16.91537 12564 ft 342 kts 43°
2026-05-01 13:55 48.49695 16.93920 13317 ft 343 kts 43°
2026-05-01 13:55 48.51436 16.96415 14089 ft 345 kts 43°
2026-05-01 13:56 48.53156 16.98876 14702 ft 349 kts 43°
2026-05-01 13:56 48.54867 17.01325 15286 ft 353 kts 43°
2026-05-01 13:56 48.56652 17.03883 15902 ft 357 kts 43°
2026-05-01 13:56 48.58460 17.06473 16522 ft 360 kts 43°
2026-05-01 13:57 48.60275 17.09076 17147 ft 363 kts 43°
2026-05-01 13:57 48.62127 17.11734 17750 ft 366 kts 43°
2026-05-01 13:57 48.63985 17.14404 18354 ft 370 kts 43°
2026-05-01 13:57 48.65855 17.17094 18907 ft 374 kts 43°
2026-05-01 13:58 48.67734 17.19799 19479 ft 375 kts 44°
2026-05-01 13:58 48.69637 17.22542 20113 ft 375 kts 44°
2026-05-01 13:58 48.71511 17.25247 20657 ft 377 kts 44°
2026-05-01 13:58 48.73410 17.27990 21145 ft 381 kts 44°
2026-05-01 13:59 48.75366 17.30820 21655 ft 383 kts 44°
2026-05-01 13:59 48.77285 17.33599 22138 ft 386 kts 44°
2026-05-01 13:59 48.79231 17.36419 22629 ft 388 kts 44°
2026-05-01 13:59 48.81147 17.39199 23095 ft 390 kts 44°
2026-05-01 14:00 48.83071 17.41994 23513 ft 393 kts 44°
2026-05-01 14:00 48.85074 17.44906 23941 ft 395 kts 44°
2026-05-01 14:00 48.87058 17.47794 24312 ft 398 kts 44°
2026-05-01 14:00 48.89032 17.50672 24671 ft 399 kts 44°
2026-05-01 14:01 48.91039 17.53602 25044 ft 401 kts 44°
2026-05-01 14:01 48.93042 17.56529 25394 ft 403 kts 44°
2026-05-01 14:01 48.95080 17.59511 25737 ft 405 kts 44°
2026-05-01 14:01 48.97049 17.62394 26061 ft 407 kts 44°
2026-05-01 14:02 48.99125 17.65438 26398 ft 409 kts 44°
2026-05-01 14:02 49.01123 17.68371 26707 ft 411 kts 44°
2026-05-01 14:02 49.03161 17.71367 27012 ft 413 kts 44°
2026-05-01 14:02 49.05236 17.74421 27315 ft 415 kts 44°
2026-05-01 14:03 49.07266 17.77411 27698 ft 414 kts 44°
2026-05-01 14:03 49.09314 17.80433 28170 ft 412 kts 44°
2026-05-01 14:03 49.11380 17.83485 28638 ft 410 kts 44°
2026-05-01 14:03 49.13399 17.86471 28967 ft 411 kts 44°
2026-05-01 14:04 49.15477 17.89547 29303 ft 412 kts 44°
2026-05-01 14:04 49.17526 17.92584 29304 ft 416 kts 44°
2026-05-01 14:04 49.21670 17.98739 29313 ft 413 kts 44°
2026-05-01 14:05 49.25523 18.04467 29332 ft 408 kts 44°
2026-05-01 14:05 49.29554 18.10486 29332 ft 404 kts 44°
2026-05-01 14:06 49.33604 18.16547 29326 ft 403 kts 44°
2026-05-01 14:06 49.37603 18.22545 29335 ft 406 kts 44°
2026-05-01 14:07 49.41570 18.28506 29327 ft 411 kts 44°
2026-05-01 14:08 49.47630 18.37643 29318 ft 409 kts 44°
2026-05-01 14:08 49.49672 18.40729 28876 ft 414 kts 44°
2026-05-01 14:08 49.51663 18.43741 28414 ft 407 kts 44°
2026-05-01 14:08 49.53693 18.46821 27884 ft 399 kts 44°
2026-05-01 14:09 49.55660 18.49808 27367 ft 393 kts 44°
2026-05-01 14:09 49.57561 18.52693 26835 ft 388 kts 44°
2026-05-01 14:09 49.59498 18.55635 26006 ft 389 kts 44°
2026-05-01 14:09 49.61371 18.58485 25337 ft 389 kts 45°
2026-05-01 14:10 49.63293 18.61414 24788 ft 385 kts 45°
2026-05-01 14:10 49.65203 18.64327 24238 ft 381 kts 45°
2026-05-01 14:10 49.67077 18.67196 23625 ft 378 kts 46°
2026-05-01 14:10 49.68738 18.70322 22941 ft 376 kts 54°
2026-05-01 14:11 49.70111 18.73744 22298 ft 374 kts 60°
2026-05-01 14:11 49.72067 18.81074 21088 ft 370 kts 66°
2026-05-01 14:11 49.72972 18.84805 20527 ft 367 kts 66°
2026-05-01 14:12 49.73866 18.88497 19981 ft 364 kts 66°
2026-05-01 14:12 49.74747 18.92124 19352 ft 362 kts 66°
2026-05-01 14:12 49.75625 18.95734 18794 ft 361 kts 66°
2026-05-01 14:12 49.76519 18.99397 18168 ft 358 kts 66°
2026-05-01 14:13 49.77271 19.02536 17654 ft 356 kts 67°
2026-05-01 14:13 49.77831 19.04868 17297 ft 354 kts 66°
2026-05-01 14:13 49.78991 19.09620 16523 ft 350 kts 66°
2026-05-01 14:13 49.79859 19.13157 15965 ft 348 kts 67°
2026-05-01 14:14 49.80707 19.16631 15415 ft 346 kts 66°
2026-05-01 14:14 49.81558 19.20108 14865 ft 344 kts 66°
2026-05-01 14:14 49.82384 19.23510 14358 ft 342 kts 66°
2026-05-01 14:14 49.83168 19.26751 13862 ft 340 kts 66°
2026-05-01 14:15 49.83993 19.30165 13274 ft 338 kts 66°
2026-05-01 14:15 49.84814 19.33569 12713 ft 337 kts 66°
2026-05-01 14:15 49.85635 19.36975 12174 ft 335 kts 66°
2026-05-01 14:15 49.86454 19.40381 11730 ft 331 kts 66°
2026-05-01 14:16 49.87250 19.43706 11586 ft 318 kts 66°
2026-05-01 14:16 49.87994 19.46820 11479 ft 306 kts 66°
2026-05-01 14:16 49.88713 19.49829 11304 ft 297 kts 66°
2026-05-01 14:16 49.89419 19.52785 11202 ft 286 kts 66°
2026-05-01 14:17 49.90093 19.55615 11128 ft 275 kts 66°
2026-05-01 14:17 49.90751 19.58374 10974 ft 267 kts 65°
2026-05-01 14:17 49.91385 19.61034 10825 ft 259 kts 65°
2026-05-01 14:17 49.91997 19.63605 10628 ft 255 kts 65°
2026-05-01 14:18 49.92584 19.66072 10393 ft 253 kts 65°
2026-05-01 14:18 49.93197 19.68647 10066 ft 254 kts 65°
2026-05-01 14:18 49.93811 19.71230 9741 ft 254 kts 66°
2026-05-01 14:18 49.94217 19.72941 9507 ft 254 kts 66°
2026-05-01 14:19 49.95031 19.76376 9094 ft 255 kts 66°
2026-05-01 14:19 49.95643 19.78967 8773 ft 255 kts 66°
2026-05-01 14:19 49.96251 19.81544 8469 ft 255 kts 66°
2026-05-01 14:19 49.96861 19.84133 8173 ft 255 kts 66°
2026-05-01 14:20 49.97461 19.86683 7835 ft 257 kts 67°
2026-05-01 14:20 49.98680 19.91872 7221 ft 258 kts 67°
2026-05-01 14:20 49.99292 19.94483 6964 ft 257 kts 67°
2026-05-01 14:21 49.99906 19.97104 6651 ft 259 kts 67°
2026-05-01 14:21 50.00510 19.99685 6422 ft 257 kts 67°
2026-05-01 14:21 50.01041 20.01970 6178 ft 256 kts 67°
2026-05-01 14:22 50.02193 20.06907 5766 ft 249 kts 67°
2026-05-01 14:22 50.02927 20.09271 5626 ft 239 kts 46°
2026-05-01 14:22 50.04239 20.10693 5495 ft 226 kts 17°
2026-05-01 14:22 50.05766 20.11098 5292 ft 221 kts 358°
2026-05-01 14:23 50.07284 20.10714 5018 ft 222 kts 348°
2026-05-01 14:23 50.08799 20.10206 4840 ft 217 kts 348°
2026-05-01 14:23 50.10243 20.09613 4489 ft 221 kts 335°
2026-05-01 14:23 50.11281 20.07911 4308 ft 221 kts 294°
2026-05-01 14:24 50.11423 20.05572 4084 ft 223 kts 267°
2026-05-01 14:24 50.11260 20.03184 3782 ft 220 kts 264°
2026-05-01 14:24 50.10937 20.00854 3485 ft 217 kts 259°
2026-05-01 14:24 50.10590 19.98592 3196 ft 212 kts 260°
2026-05-01 14:25 50.10278 19.96387 2909 ft 209 kts 261°
2026-05-01 14:25 50.09975 19.94237 2645 ft 193 kts 261°
2026-05-01 14:25 50.09702 19.92300 2419 ft 175 kts 261°
2026-05-01 14:25 50.09453 19.90519 2164 ft 157 kts 261°
2026-05-01 14:26 50.09235 19.88992 2081 ft 139 kts 261°
2026-05-01 14:26 50.08796 19.86093 1557 ft 135 kts 262°
2026-05-01 14:26 50.08628 19.84693 1344 ft 129 kts 262°
2026-05-01 14:27 50.08452 19.83296 1185 ft 132 kts 261°
2026-05-01 14:27 50.08237 19.81831 1079 ft 141 kts 261°
2026-05-01 14:27 50.08024 19.80369 876 ft 142 kts 261°
2026-05-01 14:28 50.07620 19.77445 1012 ft 134 kts 264°
2026-05-01 14:28 50.07472 19.75986 1570 ft 141 kts 267°
2026-05-01 14:28 50.07275 19.74492 2068 ft 143 kts 263°
2026-05-01 14:28 50.07073 19.72954 2403 ft 142 kts 266°
2026-05-01 14:29 50.06891 19.71432 2714 ft 142 kts 266°
2026-05-01 14:29 50.06741 19.69925 2959 ft 138 kts 269°
2026-05-01 14:30 50.04873 19.67283 1688 ft 177 kts 163°
2026-05-01 14:30 50.03604 19.67822 1275 ft 194 kts 167°
2026-05-01 14:30 50.02337 19.68263 1520 ft 183 kts 166°
2026-05-01 14:31 50.00453 19.68950 2067 ft 234 kts 167°